Weather History for KM19 - July, 2013

Change the Weather History Date:

Saturday, July 20, 2013

  Actual Average (KJBR) Record (KJBR)
Temperature  
Mean Temperature 82 °F 81 °F  
Max Temperature 92 °F 91 °F 108 °F (1901)
Min Temperature 72 °F 71 °F 56 °F (1910)
Degree Days  
Heating Degree Days 0 0  
Month to date heating degree days 0  
Since 1 June heating degree days 1  
Since 1 July heating degree days 0  
Cooling Degree Days 17 16  
Month to date cooling degree days 319  
Year to date cooling degree days 915  
Since 1 June cooling degree days 702  
Growing Degree Days 32 (Base 50)    
Moisture  
Dew Point 73 °F    
Average Humidity 77    
Maximum Humidity 100    
Minimum Humidity 52    
Precipitation  
Precipitation 0.00 in 0.10 in 1.71 in (2002)
Month to date precipitation 2.50  
Year to date precipitation 27.53  
Snow  
Snow 0.00 in 0.00 in - ()
Month to date snowfall 0.0  
Since 1 June snowfall 0.0  
Since 1 July snowfall 0.0  
Snow Depth -    
Sea Level Pressure  
Sea Level Pressure 29.93 in    
Wind  
Wind Speed 6 mph (SSW)    
Max Wind Speed 16 mph    
Max Gust Speed 16 mph    
Visibility 10 miles    
Events      
T = Trace of Precipitation, MM = Missing Value Source: NWS Daily Summary

Daily Weather History Graph

Daily Weather History Graph

Search for Another Location

Airport or City:

Trip Planner

Search our weather history database for the weather conditions in past years. The results will help you decide how hot, cold, wet, or windy it might be!

Date:

Astronomy

Jul. 20, 2013 Rise Set
Actual Time 6:04 AM CDT 8:17 PM CDT
Civil Twilight 5:35 AM CDT 8:46 PM CDT
Nautical Twilight 4:59 AM CDT 9:21 PM CDT
Astronomical Twilight 4:21 AM CDT 10:00 PM CDT
Moon 6:21 PM CDT (7/20) 3:44 AM CDT (7/20)
Length of Visible Light 15h 11m
Length of Day
14h 13m
Waxing Gibbous, 94% of the Moon is Illuminated
Jul 20
Waxing Gibbous
Jul 22
Full
Jul 29
Last Quarter
Aug 6
New
Aug 14
First Quarter

Hourly Weather History & Observations

Time (CDT) Temp. Heat Index Dew Point Humidity Pressure Visibility Wind Dir Wind Speed Gust Speed Precip Events Conditions
12:56 AM 74.8 °F - 74.8 °F 100% 29.95 in 10.0 mi SSE 3.5 mph - N/A   Clear
1:56 AM 75.9 °F - 75.9 °F 100% 29.95 in 10.0 mi WSW 4.6 mph - N/A   Clear
2:56 AM 73.9 °F - 73.9 °F 100% 29.94 in 10.0 mi Calm Calm - N/A   Clear
3:56 AM 73.9 °F - 73.9 °F 100% 29.95 in 10.0 mi SW 5.8 mph - N/A   Clear
4:56 AM 73.9 °F - 72.9 °F 96% 29.96 in 10.0 mi SW 4.6 mph - N/A   Clear
5:56 AM 72.9 °F - 72.9 °F 100% 29.96 in 10.0 mi SSW 4.6 mph - N/A   Clear
6:56 AM 72.9 °F - 72.9 °F 100% 29.96 in 8.0 mi South 5.8 mph - N/A   Clear
7:43 AM 75.2 °F - 73.4 °F 94% 29.97 in 10.0 mi South 8.1 mph - N/A   Partly Cloudy
7:56 AM 75.9 °F - 73.9 °F 94% 29.96 in 10.0 mi South 8.1 mph - N/A   Partly Cloudy
8:56 AM 79.9 °F - 72.9 °F 79% 29.96 in 10.0 mi SW 9.2 mph - N/A   Clear
9:56 AM 83.8 °F 89.8 °F 72.9 °F 69% 29.96 in 10.0 mi WSW 8.1 mph - N/A   Clear
10:56 AM 86.0 °F 93.0 °F 72.9 °F 65% 29.96 in 10.0 mi SW 11.5 mph 16.1 mph N/A   Clear
11:56 AM 88.9 °F 95.6 °F 72.0 °F 57% 29.94 in 10.0 mi SW 8.1 mph - N/A   Clear
12:56 PM 90.0 °F 97.9 °F 72.9 °F 57% 29.93 in 10.0 mi South 8.1 mph - N/A   Clear
1:56 PM 91.9 °F 100.1 °F 72.9 °F 53% 29.92 in 10.0 mi SSE 9.2 mph - N/A   Clear
2:56 PM 91.9 °F 99.5 °F 72.0 °F 52% 29.88 in 10.0 mi South 11.5 mph - N/A   Clear
3:56 PM 92.8 °F 101.5 °F 72.9 °F 52% 29.86 in 10.0 mi SSE 11.5 mph - N/A   Clear
4:56 PM 92.8 °F 101.5 °F 72.9 °F 52% 29.83 in 10.0 mi South 11.5 mph - N/A   Clear
5:23 PM 91.4 °F 98.4 °F 71.6 °F 52% 29.86 in 10.0 mi West 16.1 mph - N/A   Clear
5:56 PM 88.9 °F 93.8 °F 70.0 °F 53% 29.87 in 10.0 mi WNW 11.5 mph - N/A   Clear
6:56 PM 82.9 °F 87.5 °F 70.9 °F 67% 29.89 in 10.0 mi NW 12.7 mph - N/A   Scattered Clouds
7:56 PM 79.0 °F - 70.9 °F 76% 29.90 in 10.0 mi North 8.1 mph - N/A   Clear
8:56 PM 77.0 °F - 70.9 °F 81% 29.91 in 10.0 mi Calm Calm - N/A   Clear
9:56 PM 77.0 °F - 70.9 °F 81% 29.94 in 10.0 mi NW 4.6 mph - N/A   Partly Cloudy
10:56 PM 77.0 °F - 70.0 °F 79% 29.94 in 10.0 mi Variable 3.5 mph - N/A   Clear
11:56 PM 74.8 °F - 72.9 °F 94% 29.94 in 10.0 mi South 3.5 mph - N/A   Clear